DW8923 Weather Reports


Display with metric or nautical units.
time (UTC)temp
F
wind
direction
speed
MPH
gust
MPH
rain 1hr
in
rain 24hr
in
rain mn
in
humidity
%
barometer
mb
20260507003058 61 313 1.0 8.0 0.00 0.00 0.00 85 1011.7
20260507001559 61 319 0.0 6.0 0.00 0.00 0.00 84 1011.7
20260507000058 61 294 1.0 7.0 0.00 0.00 0.00 84 1011.7
20260506234557 61 320 0.0 10.0 0.00 0.00 0.00 84 1011.4
20260506233110 61 327 0.0 8.0 0.00 0.00 0.00 84 1011.7
20260506231601 61 344 0.0 9.0 0.00 0.00 0.00 84 1011.7
20260506230056 61 288 2.0 10.0 0.00 0.00 0.00 83 1011.5
20260506224555 61 327 1.0 8.0 0.00 0.00 0.00 85 1011.4
20260506223055 60 302 3.0 6.0 0.00 0.00 0.00 85 1011.1
20260506221553 60 302 2.0 8.0 0.00 0.00 0.00 86 1011.2
20260506220053 60 306 3.0 10.0 0.00 0.00 0.00 86 1011.4
20260506214554 59 290 2.0 6.0 0.00 0.00 0.00 86 1011.1
20260506213110 59 327 3.0 11.0 0.00 0.00 0.00 85 1011.3
20260506211549 60 49 2.0 10.0 0.00 0.00 0.00 85 1011.4
20260506210048 60 304 4.0 11.0 0.00 0.00 0.00 84 1011.5
20260506204547 60 302 1.0 9.0 0.00 0.00 0.00 85 1011.5
20260506203047 60 289 3.0 14.0 0.00 0.00 0.00 85 1011.6
20260506201544 60 322 3.0 13.0 0.00 0.00 0.00 85 1011.4
20260506200042 60 312 4.0 12.0 0.00 0.00 0.00 84 1011.5
20260506194541 61 292 4.0 13.0 0.00 0.00 0.00 83 1011.3
20260506193040 62 320 4.0 12.0 0.00 0.00 0.00 83 1011.4
20260506191541 63 347 4.0 11.0 0.00 0.00 0.00 82 1011.5
20260506190039 64 246 3.0 9.0 0.00 0.00 0.00 83 1011.3
20260506184548 65 302 2.0 11.0 0.00 0.00 0.00 83 1011.1
20260506183051 66 301 3.0 14.0 0.00 0.00 0.00 81 1011.1
20260506181602 68 271 4.0 11.0 0.00 0.00 0.00 79 1010.9
20260506180036 69 308 1.0 9.0 0.00 0.00 0.00 80 1010.8
20260506174534 67 342 3.0 10.0 0.00 0.00 0.00 81 1010.6
20260506173052 67 98 1.0 5.0 0.00 0.00 0.00 83 1010.4
20260506171533 66 349 2.0 8.0 0.00 0.00 0.00 82 1010.3
20260506170035 65 12 3.0 10.0 0.00 0.00 0.00 84 1010.4
20260506164536 64 85 3.0 9.0 0.00 0.00 0.00 87 1010.2
20260506163030 61 339 2.0 8.0 0.00 0.00 0.00 92 1010.9
20260506161529 59 21 3.0 9.0 0.00 0.00 0.00 92 1010.5
20260506160029 59 315 2.0 11.0 0.00 0.00 0.00 92 1011.7
20260506154526 60 34 5.0 13.0 0.00 0.00 0.00 91 1012.1
20260506153023 61 287 3.0 17.0 0.00 0.00 0.00 92 1012.0
20260506151518 62 305 3.0 15.0 0.00 0.00 0.00 92 1012.0
20260506150015 63 312 2.0 11.0 0.00 0.00 0.00 92 1010.9
20260506144516 63 306 2.0 14.0 0.00 0.00 0.00 91 1009.9
20260506143009 65 329 4.0 13.0 0.00 0.00 0.00 90 1009.9
20260506141502 66 322 2.0 10.0 0.00 0.00 0.00 90 1009.3
20260506140106 67 55 1.0 11.0 0.00 0.00 0.00 89 1008.8
20260506134555 70 292 2.0 11.0 0.00 0.00 0.00 89 1008.9
20260506133052 73 69 1.0 3.0 0.00 0.00 0.00 94 1008.3
20260506131555 73 46 0.0 2.0 0.00 0.00 0.00 94 1008.2
20260506130048 73 15 0.0 3.0 0.00 0.00 0.00 94 1007.8
20260506124550 73 291 0.0 2.0 0.00 0.00 0.00 93 1007.8
20260506123047 73 200 0.0 0.0 0.00 0.00 0.00 93 1007.6
20260506121543 73 152 0.0 0.0 0.00 0.00 0.00 92 1007.4
20260506120043 73 152 0.0 0.0 0.00 0.00 0.00 92 1007.3
20260506114540 73 152 0.0 0.0 0.00 0.00 0.00 92 1007.2
20260506113042 74 152 0.0 0.0 0.00 0.00 0.00 92 1007.2
20260506111538 74 152 0.0 0.0 0.00 0.00 0.00 92 1007.3
20260506110037 74 199 0.0 3.0 0.00 0.00 0.00 92 1007.3
20260506104536 74 150 0.0 3.0 0.00 0.00 0.00 91 1007.3
20260506103034 74 148 1.0 3.0 0.00 0.00 0.00 91 1007.2
20260506101532 74 175 0.0 5.0 0.00 0.00 0.00 91 1007.0
20260506100034 75 146 1.0 5.0 0.00 0.00 0.00 91 1006.8
20260506094529 75 166 2.0 4.0 0.00 0.00 0.00 90 1006.7
20260506093027 75 127 2.0 5.0 0.00 0.00 0.00 90 1006.5
20260506091526 75 119 2.0 5.0 0.00 0.00 0.00 89 1006.4
20260506090029 75 161 2.0 6.0 0.00 0.00 0.00 89 1006.4
20260506084525 75 136 1.0 5.0 0.00 0.00 0.00 89 1006.2
20260506083024 75 166 0.0 8.0 0.00 0.00 0.00 89 1006.3
20260506081523 75 159 3.0 10.0 0.00 0.00 0.00 89 1006.3
20260506073020 75 143 3.0 11.0 0.00 0.00 0.00 89 1006.3
20260506071519 75 177 4.0 11.0 0.00 0.00 0.00 89 1006.4
20260506061513 75 188 5.0 9.0 0.00 0.00 0.00 89 1006.2
20260506044500 75 165 2.0 10.0 0.00 0.00 0.00 89 1006.3
20260506043101 76 135 3.0 7.0 0.00 0.00 0.00 88 1006.4
20260506041605 76 121 4.0 8.0 0.00 0.00 0.00 88 1006.3
20260506040058 76 173 1.0 8.0 0.00 0.00 0.00 87 1006.1
20260506034614 76 126 1.0 4.0 0.00 0.00 0.00 86 1006.0
20260506033057 77 106 2.0 5.0 0.00 0.00 0.00 85 1005.8
20260506031606 77 145 2.0 6.0 0.00 0.00 0.00 84 1005.7
20260506030056 77 144 0.0 5.0 0.00 0.00 0.00 83 1005.4
20260506024613 77 153 0.0 5.0 0.00 0.00 0.00 83 1005.2
20260506023055 78 123 0.0 4.0 0.00 0.00 0.00 82 1005.0
20260506021554 78 166 0.0 4.0 0.00 0.00 0.00 81 1004.6
20260506020053 79 133 0.0 4.0 0.00 0.00 0.00 80 1004.5
20260506014553 79 128 0.0 4.0 0.00 0.00 0.00 79 1004.4
20260506013104 80 159 0.0 6.0 0.00 0.00 0.00 77 1004.3
20260506011604 80 139 0.0 7.0 0.00 0.00 0.00 75 1004.1
20260506010055 81 152 1.0 7.0 0.00 0.00 0.00 74 1004.0
20260506004549 82 136 2.0 5.0 0.00 0.00 0.00 73 1004.0